Flag for Germany Weather past 2 weeks in Bocholt, North Rhine-Westphalia, Germany

Now
54 °F

Partly sunny.


Feels Like: 49 °F
Forecast: 48 / 51 °F
Wind: 18 mph from Southwest

Location: Niederrhein

Current Time: Dec 22, 2014 at 5:49:55 PM

Latest Report: Dec 22, 2014 at 5:20 PM


Visibility: N/A

Pressure: 30.04 "Hg

Humidity: 94%

Dew point: 52 °F

Location of BocholtLocation

Historic Weather in Bocholt — Graph

°F

Bocholt temperature yesterday

Maximum temperature yesterday: 48 °F (at 10:20 PM)
Minimum temperature yesterday: 39 °F (at 6:20 AM)
Average temperature yesterday: 44 °F

Past Weeks' High & Low Weather Summary

 TemperatureHumidityPressure
High55 °F (Dec 18, 3:50 PM)100% (Dec 7, 4:20 PM)30.39 "Hg (Dec 7, 4:20 PM)
Low34 °F (Dec 9, 4:50 AM)71% (Dec 10, 2:20 PM)29.36 "Hg (Dec 12, 12:20 PM)
Average43 °F95%29.93 "Hg
* Reported Dec 7 4:20 PM — Dec 22 4:50 PM, Bocholt, Weather by CustomWeather, © 2014

Note: Actual official high and low records may vary slightly from our data, if they occured in-between our weather recording intervals... More about our weather records

Advertising

Bocholt weather history for previous 24 hours

 ConditionsComfort  
Time TempWeatherWind HumidityBarometerVisibility
4:50 PM
Dec 22
54 °FPartly sunny.17 mph94%30.04 "HgN/A
4:20 PM54 °FPartly sunny.20 mph94%30.04 "HgN/A
3:50 PM54 °FPartly sunny.23 mph94%30.01 "HgN/A
3:20 PM54 °FPartly sunny.22 mph94%30.01 "HgN/A
2:50 PM54 °FPartly sunny.22 mph94%30.01 "HgN/A
2:20 PM52 °FDrizzle. Partly sunny.22 mph100%30.01 "HgN/A
1:50 PM52 °FDrizzle. Partly sunny.21 mph100%30.04 "HgN/A
1:20 PM52 °FDrizzle. Partly sunny.17 mph100%30.04 "Hg5 mi
12:50 PM50 °FDrizzle. Partly sunny.17 mph100%30.04 "Hg6 mi
12:20 PM50 °FDrizzle. Partly sunny.18 mph100%30.04 "HgN/A
11:50 AM50 °FDrizzle. Partly sunny.22 mph100%30.04 "HgN/A
11:20 AM50 °FDrizzle. Partly sunny.21 mph100%30.07 "HgN/A
10:50 AM50 °FDrizzle. Partly sunny.20 mph94%30.07 "HgN/A
10:20 AM50 °FPartly sunny.21 mph94%30.07 "HgN/A
9:50 AM50 °FPartly sunny.18 mph94%30.07 "HgN/A
9:20 AM50 °FPassing clouds.20 mph94%30.07 "HgN/A
8:50 AM50 °FPassing clouds.21 mph94%30.07 "HgN/A
8:20 AM50 °FPassing clouds.22 mph100%30.07 "HgN/A
7:50 AM50 °FPassing clouds.23 mph94%30.07 "HgN/A
7:20 AM50 °FPassing clouds.21 mph100%30.07 "HgN/A
6:50 AM50 °FPassing clouds.21 mph100%30.07 "HgN/A
6:20 AM50 °FPassing clouds.21 mph100%30.07 "HgN/A
5:50 AM50 °FPassing clouds.22 mph94%30.07 "HgN/A
5:20 AM50 °FPassing clouds.22 mph94%30.07 "HgN/A
11:50 PM
Dec 21
48 °FPassing clouds.20 mph94%30.15 "HgN/A
11:20 PM48 °FPassing clouds.16 mph94%30.18 "HgN/A
10:20 PM48 °FPassing clouds.20 mph100%30.18 "HgN/A
9:50 PM46 °FPassing clouds.17 mph100%30.18 "HgN/A
9:20 PM46 °FPassing clouds.17 mph100%30.18 "HgN/A
8:50 PM46 °FLight rain. Passing clouds.20 mph100%30.21 "HgN/A
8:20 PM46 °FLight rain. Passing clouds.17 mph100%30.21 "HgN/A
7:50 PM46 °FLight rain. Passing clouds.15 mph100%30.21 "HgN/A
7:20 PM46 °FLight rain. Partly cloudy.13 mph100%30.21 "Hg5 mi
6:50 PM46 °FLight rain. Passing clouds.14 mph100%30.21 "Hg6 mi
6:20 PM46 °FLight rain. Fog.12 mph100%30.24 "Hg3 mi
5:50 PM46 °FLight rain. Passing clouds.17 mph100%30.24 "Hg4 mi
5:20 PM46 °FLight rain. Partly sunny.16 mph100%30.24 "HgN/A
Weather by CustomWeather, © 2014

See weather overviewHow to use our weather pages